sat.trackr.live / text

‹ back to catalog

YUNHAI-1 02

NORAD 44547 · 2019-063A

PAYLOAD ACTIVE UNKNOWN

§ Identity

Operator
Country
PRC
Launch date
2019-09-25
Launch site
JSC
Launch vehicle
Mass (kg)
RCS (m²)

External: N2YO · Heavens-Above · Gunter

§ Orbital elements

Epoch: 2026-09-13T03:07:55.471296Z

Period
100.52 min
Inclination
98.4147°
Eccentricity
0.0004907
Mean motion
14.32597781 rev/d
Perigee alt
779.5 km
Apogee alt
786.6 km
Semi-major
7,161.2 km
B*
1.0012e-4
RAAN
264.0300°
Arg perigee
258.0016°
Mean anomaly
102.0619°
Rev number
36,446

§ Raw data

YUNHAI-1 021 44547U 19063A   26256.13050314  .00000229  00000+0  10012-3 0  99902 44547  98.4147 264.0300 0004907 258.0016 102.0619 14.32597781364465

JSON: /api/v1/satellites/44547 · /tle

For live sub-satellite position, see the globe view (requires WebGL).

§ Visibility from observer

Set your observer location to see the next 7 days of passes ≥ 10°. The values pass through the URL so the page stays shareable.

No JS? Fill the form by hand. The geolocation button needs JavaScript.

§ Radio — SatNOGS DB

ModeDescriptionDownlinkUplink
BPSK L-band data 1.704 GHz

1 transmitter · refreshed weekly from db.satnogs.org